STARLINK-11168, 60183

Orbit data source: Space-Track

STARLINK-11168, 60183 is a payload satellite owned by SpaceX/Seattle (US) in LEO that was launched on Wed, 03 Jul 2024 UTC via an FALCON 9 launch vehicle from the Air Force Eastern Test Range (AFETR). Payload-class satellites include a variety of spacecraft equipped with specific instruments for various scientific and technological missions. These include communications satellites like Starlink; space stations such as the ISS; scientific satellites like the Hubble; Earth observation satellites from companies like Planet Labs, Umbra, and HawkEye 360; GPS; miniature CubeSats for education and research; and military/defense satellites.

Loading next visibility...
Identifier
60183, 2024-124A
Orbit
LEO
Country
Flag of USUS
Related business
Manufacturer
SpaceX/Seattle
Mission
Operational Commercial Communications
Bus & Motor
STARLINK V2MD, Unknown motor
Mass
960 kg wet, ~910 kg dry
Launch date (UTC)
2024-07-03 (1 year ago)
Launch vehicle
FALCON 9
Launch site
Air Force Eastern Test Range (AFETR)
Object type
Payload
Rocket body
Debris
Shape & HBR
Box + 2 Pan, 18.1 m
Radar Cross Section
36.964 m², Large (>1 m²)

Expand to show TLE details & history
Last TLE update: 8 hours ago

TLE from 8 hours ago
0 STARLINK-11168
1 60183U 24124A   25346.96218919  .00015829  00000-0  13509-3 0  9992
2 60183  53.1581 228.7128 0001363  71.7853 288.3313 15.69741265 84104
Epoch: 2025-12-12T23:05Z
TLE epoch observation values (Epoch: 2025-12-12T23:05:33.146Z)
Latitude
-0.00001°
Longitude
160.42839°
Altitude
360.263 km
Speed
7.695 km/s
True Right ascension
15h 14m 51s
True Declination
0° 00' 00"
Sunlit
Object was in daylight at epoch
Visualization orbit readout
Latitude
Unknown
Longitude
Unknown
Altitude
Unknown
Speed
Unknown
Apparent Right ascension
Unknown
Apparent Declination
Unknown
Sunlit
N/A
Visualization observer readout
Local Sidereal Time
05:23:57
Azimuth
Unknown
Elevation
Unknown
Doppler factor
Unknown
Orbital elements
Apogee altitude
360.817 km
Perigee altitude
358.98 km
Semi-major axis
6,738.035 km
Eccentricity
0.00014
Inclination
53.1581°
RAAN
228.7128°
Arg. of periapsis
71.7853°
True anomaly
288.31647°
Mean anomaly
288.3313°
Eccentric anomaly
288.32389°
Mean motion
3.92413 °/min
Orbital period
91.74 mins
BSTAR
0.00013509
Loading maneuver chart data...
Computing Atmospheric mass density...
Loading historical data...
Loading historical data...
Loading historical data...
Loading historical data...
Loading historical data...
Loading historical data...
Loading historical data...

Documentation

Showing up to 5 results
|